Holbeach, United Kingdom

12:25 AM BST on April 25, 2017 (GMT +0100)
Holbeach

Weather History for EGYH - February, 2014

Change the Weather History Date:

Thursday, February 20, 2014

  Actual Average Record
Temperature  
Mean Temperature 48 °F -  
Max Temperature 55 °F - - ()
Min Temperature 40 °F - - ()
Degree Days  
Heating Degree Days 17    
Moisture  
Dew Point 46 °F    
Average Humidity 82    
Maximum Humidity 98    
Minimum Humidity 59    
Precipitation  
Precipitation 0.01 in - - ()
Sea Level Pressure  
Sea Level Pressure 29.47 in    
Wind  
Wind Speed 17 mph ()    
Max Wind Speed 29 mph    
Max Gust Speed -    
Visibility 7.5 miles    
Events Rain    
T = Trace of Precipitation, MM = Missing Value Source: Averaged Metar Reports

Daily Weather History Graph

Daily Weather History Graph

Search for Another Location

Airport or City:

Trip Planner

Search our weather history database for the weather conditions in past years. The results will help you decide how hot, cold, wet, or windy it might be!

Date:

Astronomy

Feb. 20, 2014 Rise Set
Actual Time 7:06 AM GMT 5:20 PM GMT
Civil Twilight 6:31 AM GMT 5:55 PM GMT
Nautical Twilight 5:51 AM GMT 6:36 PM GMT
Astronomical Twilight 5:11 AM GMT 7:15 PM GMT
Moon 11:50 PM GMT (2/20) 8:53 AM GMT (2/20)
Length of Visible Light 11h 24m
Length of Day
10h 14m
Waning Gibbous, 73% of the Moon is Illuminated
Feb 20
Waning Gibbous
Feb 22
Last Quarter
Mar 1
New
Mar 8
First Quarter
Mar 16
Full

Hourly Weather History & Observations

Time (GMT) Temp. Dew Point Humidity Pressure Visibility Wind Dir Wind Speed Gust Speed Precip Events Conditions
12:00 AM 46 °F 46 °F 97% 29.73 in 4 mi South 13.8 mph - -   Mist
1:00 AM 47 °F 46 °F 93% 29.70 in 6 mi South 15.0 mph - - Rain Light Rain Showers
2:00 AM 47 °F 47 °F 98% 29.65 in 6 mi South 15.0 mph - - Rain Rain
3:00 AM 48 °F 47 °F 96% 29.61 in 3 mi South 16.1 mph - - Rain Light Drizzle
4:00 AM 49 °F 48 °F 95% 29.58 in 12 mi South 20.7 mph - - Rain Rain
5:00 AM 50 °F 49 °F 93% 29.54 in 28 mi SSW 23.0 mph - -   Overcast
6:00 AM 50 °F 49 °F 94% 29.51 in 31 mi South 23.0 mph - -  
7:00 AM 51 °F 49 °F 90% 29.48 in 31 mi SSW 23.0 mph - -   Partly Cloudy
8:00 AM 51 °F 49 °F 91% 29.47 in 31 mi South 23.0 mph - - Rain Rain
8:50 AM 51.8 °F 48.2 °F 88% 29.44 in 6.2 mi SSW 23.0 mph - N/A   Mostly Cloudy
9:00 AM 51 °F 49 °F 88% 29.45 in 31 mi SSW 24.2 mph - -   Mostly Cloudy
9:50 AM 51.8 °F 48.2 °F 88% 29.42 in 6.2 mi SW 28.8 mph - N/A   Mostly Cloudy
10:00 AM 52 °F 49 °F 85% 29.44 in 28 mi SSW 25.3 mph - -   Scattered Clouds
10:50 AM 51.8 °F 50.0 °F 94% 29.42 in 6.2 mi SSW 28.8 mph - N/A   Mostly Cloudy
11:00 AM 52 °F 50 °F 91% 29.43 in 16 mi SSW 26.5 mph - - Rain Light Rain Showers
11:50 AM 51.8 °F 50.0 °F 94% 29.42 in 6.2 mi SW 23.0 mph - N/A   Mostly Cloudy
12:00 PM 52 °F 51 °F 96% 29.42 in 31 mi SSW 23.0 mph - - Rain Rain
12:50 PM 55.4 °F 51.8 °F 88% 29.42 in 6.2 mi SW 15.0 mph - N/A   Mostly Cloudy
1:00 PM 54 °F 51 °F 86% 29.41 in 22 mi SSW 19.6 mph - -   Scattered Clouds
1:50 PM 55.4 °F 46.4 °F 72% 29.39 in 6.2 mi WSW 17.3 mph - N/A   Scattered Clouds
2:00 PM 55 °F 46 °F 63% 29.41 in 28 mi WSW 19.6 mph - -   Scattered Clouds
2:50 PM 55.4 °F 42.8 °F 63% 29.39 in 6.2 mi WSW 20.7 mph - N/A   Scattered Clouds
3:00 PM 56 °F 46 °F 60% 29.41 in 28 mi WSW 17.3 mph - -   Scattered Clouds
3:50 PM 53.6 °F 42.8 °F 67% 29.39 in 6.2 mi WSW 23.0 mph - N/A   Scattered Clouds
4:00 PM 53 °F 43 °F 59% 29.40 in 19 mi SW 19.6 mph - -   Scattered Clouds
4:50 PM 50.0 °F 41.0 °F 71% 29.39 in 6.2 mi WSW 18.4 mph - N/A   Scattered Clouds
5:00 PM 50 °F 41 °F 63% 29.41 in 25 mi WSW 16.1 mph - -   Scattered Clouds
5:50 PM 48.2 °F 41.0 °F 76% 29.42 in 6.2 mi WSW 13.8 mph - N/A   Scattered Clouds
6:00 PM 49 °F 41 °F 66% 29.43 in 31 mi WSW 16.1 mph - - Rain Light Rain Showers
6:50 PM 48.2 °F 39.2 °F 71% 29.44 in 6.2 mi WSW 17.3 mph - N/A   Scattered Clouds
7:00 PM 48 °F 40 °F 66% 29.45 in 31 mi SW 19.6 mph - - Rain Rain
8:00 PM 46 °F 40 °F 74% 29.46 in 28 mi SW 16.1 mph - -   Scattered Clouds
9:00 PM 43 °F 40 °F 83% 29.48 in 22 mi SW 11.5 mph - -   Mostly Cloudy
10:00 PM 41 °F 38 °F 87% 29.49 in 22 mi SW 10.4 mph - -   Scattered Clouds
11:00 PM 40 °F 37 °F 87% 29.50 in 31 mi SW 12.7 mph - -